FW9327 Weather Reports


Display with metric or nautical units.
time (UTC)temp
F
wind
direction
speed
MPH
gust
MPH
rain 1hr
in
rain 24hr
in
rain mn
in
humidity
%
barometer
mb
20260902181555 94 5 0.0 8.0 0.00 0.00 0.00 62 1013.8
20260902174606 93 5 1.0 5.0 0.00 0.00 0.00 64 1013.9
20260902173056 92 5 1.0 5.0 0.00 0.00 0.00 62 1013.9
20260902171600 92 5 2.0 5.0 0.00 0.00 0.00 64 1014.1
20260902170059 92 5 2.0 5.0 0.00 0.00 0.00 64 1014.3
20260902164558 91 5 1.0 7.0 0.00 0.00 0.00 67 1014.3
20260902163103 91 9 1.0 5.0 0.00 0.00 0.00 64 1014.2
20260902161603 90 5 2.0 6.0 0.00 0.00 0.00 68 1014.3
20260902160055 90 5 1.0 5.0 0.00 0.00 0.00 69 1014.4
20260902154603 89 5 1.0 6.0 0.00 0.00 0.00 70 1014.5
20260902153107 88 5 1.0 4.0 0.00 0.00 0.00 69 1014.7
20260902151606 87 5 1.0 5.0 0.00 0.00 0.00 70 1014.5
20260902150056 86 5 2.0 5.0 0.00 0.00 0.00 73 1014.3
20260902144558 86 5 1.0 5.0 0.00 0.00 0.00 72 1014.3
20260902143104 85 5 1.0 5.0 0.00 0.00 0.00 76 1014.1
20260902141600 84 0 1.0 4.0 0.00 0.00 0.00 75 1014.1
20260902140106 84 5 1.0 5.0 0.00 0.00 0.00 77 1014.2
20260902134606 81 5 1.0 5.0 0.00 0.00 0.00 79 1014.3
20260902133111 80 5 2.0 5.0 0.00 0.00 0.00 83 1014.3
20260902131554 78 5 1.0 3.0 0.00 0.00 0.00 89 1014.6
20260902124601 74 0 0.0 2.0 0.00 0.00 0.00 95 1014.5
20260902123054 73 5 0.0 1.0 0.00 0.00 0.00 95 1014.4
20260902121603 72 0 0.0 2.0 0.00 0.00 0.00 94 1014.4
20260902120053 71 0 0.0 1.0 0.00 0.00 0.00 94 1014.4
20260902114558 71 0 0.0 0.0 0.00 0.00 0.00 93 1014.2
20260902113057 71 0 0.0 0.0 0.00 0.00 0.00 93 1014.2
20260902111556 71 0 0.0 2.0 0.00 0.00 0.00 93 1014.4
20260902110053 72 360 0.0 3.0 0.00 0.00 0.00 94 1014.5
20260902104556 72 0 0.0 3.0 0.00 0.00 0.00 94 1014.4
20260902103106 71 0 0.0 3.0 0.00 0.00 0.00 94 1014.3
20260902101557 71 0 0.0 2.0 0.00 0.00 0.00 94 1014.3
20260902100112 71 0 0.0 1.0 0.00 0.00 0.00 94 1014.3
20260902094549 71 0 0.0 0.0 0.00 0.00 0.00 94 1014.4
20260902093101 71 0 0.0 0.0 0.00 0.00 0.00 94 1014.3
20260902091608 71 0 0.0 0.0 0.00 0.00 0.00 94 1014.2
20260902090108 71 0 0.0 0.0 0.00 0.00 0.00 93 1014.1
20260902084601 71 0 0.0 1.0 0.00 0.00 0.00 93 1014.1
20260902083055 72 0 0.0 1.0 0.00 0.00 0.00 93 1014.0
20260902081601 72 0 0.0 0.0 0.00 0.00 0.00 93 1014.0
20260902080112 72 0 0.0 0.0 0.00 0.00 0.00 92 1014.1
20260902074557 72 0 0.0 0.0 0.00 0.00 0.00 92 1014.0
20260902073110 73 0 0.0 0.0 0.00 0.00 0.00 92 1013.9
20260902071628 73 0 0.0 0.0 0.00 0.00 0.00 92 1013.7
20260902064600 74 0 0.0 1.0 0.00 0.00 0.00 92 1014.1
20260902063101 74 360 0.0 3.0 0.00 0.00 0.00 93 1014.2
20260902061611 74 0 0.0 1.0 0.00 0.00 0.00 93 1014.1
20260902060055 74 0 0.0 1.0 0.00 0.00 0.00 93 1014.1
20260902054553 73 0 0.0 2.0 0.00 0.00 0.00 92 1014.0
20260902053058 74 0 0.0 2.0 0.00 0.00 0.00 93 1014.1
20260902051557 74 360 0.0 1.0 0.00 0.00 0.00 93 1014.1
20260902050114 73 0 0.0 1.0 0.00 0.00 0.00 92 1014.2
20260902044603 74 0 0.0 0.0 0.00 0.00 0.00 91 1014.2
20260902043101 74 0 0.0 1.0 0.00 0.00 0.00 91 1014.2
20260902041600 74 0 0.0 2.0 0.00 0.00 0.00 91 1014.3
20260902040057 74 0 0.0 1.0 0.00 0.00 0.00 89 1014.3
20260902034601 75 0 0.0 1.0 0.00 0.00 0.00 89 1014.4
20260902033056 75 0 0.0 1.0 0.00 0.00 0.00 88 1014.4
20260902031557 76 0 0.0 1.0 0.00 0.00 0.00 87 1014.3
20260902030052 77 0 0.0 0.0 0.00 0.00 0.00 85 1014.3
20260902024600 78 5 0.0 1.0 0.00 0.00 0.00 83 1014.3
20260902023059 79 0 0.0 2.0 0.00 0.00 0.00 83 1014.3
20260902021558 79 0 0.0 2.0 0.00 0.00 0.00 83 1014.3
20260902020056 79 0 0.0 3.0 0.00 0.00 0.00 83 1014.1
20260902014557 79 0 0.0 2.0 0.00 0.00 0.00 84 1013.9
20260902013059 78 9 0.0 3.0 0.00 0.00 0.00 85 1013.7
20260902011607 78 9 0.0 2.0 0.00 0.00 0.00 85 1013.5
20260902010122 79 0 0.0 1.0 0.00 0.00 0.00 84 1013.3
20260902004557 80 9 0.0 1.0 0.00 0.00 0.00 82 1013.2
20260902003106 82 0 0.0 2.0 0.00 0.00 0.00 80 1013.2
20260902001558 83 0 0.0 0.0 0.00 0.00 0.00 77 1013.3
20260902000056 85 0 0.0 3.0 0.00 0.00 0.00 75 1013.4
20260901234601 86 0 0.0 2.0 0.00 0.00 0.00 74 1013.4
20260901233103 87 0 0.0 3.0 0.00 0.00 0.00 72 1013.5
20260901231557 88 5 0.0 4.0 0.00 0.00 0.00 73 1013.5
20260901230056 89 0 0.0 2.0 0.00 0.00 0.00 74 1013.6
20260901224600 90 0 0.0 3.0 0.00 0.00 0.00 72 1013.5
20260901223056 90 0 0.0 3.0 0.00 0.00 0.00 71 1013.5
20260901221554 91 0 0.0 4.0 0.00 0.00 0.00 70 1013.6
20260901220100 92 0 0.0 5.0 0.00 0.00 0.00 69 1013.6
20260901214557 93 0 0.0 3.0 0.00 0.00 0.00 70 1013.6
20260901213100 93 0 0.0 3.0 0.00 0.00 0.00 67 1013.5
20260901211550 93 5 1.0 4.0 0.00 0.00 0.00 66 1013.6
20260901210057 94 5 0.0 6.0 0.00 0.00 0.00 65 1013.6
20260901204555 94 5 1.0 6.0 0.00 0.00 0.00 64 1013.6
20260901203052 95 0 1.0 5.0 0.00 0.00 0.00 66 1013.7
20260901201557 95 5 1.0 5.0 0.00 0.00 0.00 64 1013.9
20260901200105 95 5 2.0 8.0 0.00 0.00 0.00 65 1013.9
20260901194559 95 5 1.0 9.0 0.00 0.00 0.00 64 1013.9
20260901193102 95 5 2.0 8.0 0.00 0.00 0.00 65 1014.0
20260901191555 95 5 2.0 8.0 0.00 0.00 0.00 64 1014.1
20260901190114 95 5 1.0 10.0 0.00 0.00 0.00 68 1014.2
20260901184604 94 5 1.0 10.0 0.00 0.00 0.00 69 1014.3
20260901183055 94 5 2.0 8.0 0.00 0.00 0.00 67 1014.4